DW5435 Weather Reports


Display with metric or nautical units.
time (UTC)temp
F
wind
direction
speed
MPH
gust
MPH
rain 1hr
in
rain 24hr
in
rain mn
in
humidity
%
barometer
mb
20260502181515 68 0.0 0.0 0.00 0.00 0.00 65 1011.7
20260502180517 68 0.0 0.0 0.00 0.00 0.00 65 1011.9
20260502170517 66 0.0 0.0 0.00 0.00 0.00 72 1012.4
20260502163517 64 0.0 0.0 0.00 0.00 0.00 75 1012.7
20260502162517 64 0.0 0.0 0.00 0.00 0.00 72 1012.7
20260502161516 63 0.0 0.0 0.00 0.00 0.00 76 1012.7
20260502160517 63 0.0 0.0 0.00 0.00 0.00 78 1012.7
20260502151517 59 0.0 0.0 0.00 0.00 0.00 88 1012.7
20260502150517 59 0.0 0.0 0.00 0.00 0.00 89 1012.7
20260502130517 56 0.0 0.0 0.00 0.00 0.00 91 1012.2
20260502123537 55 0.0 0.0 0.00 0.00 0.00 91 1011.7
20260502122517 55 0.0 0.0 0.00 0.00 0.00 91 1011.5
20260502121517 55 0.0 0.0 0.00 0.00 0.00 91 1012.1
20260502120517 55 0.0 0.0 0.00 0.00 0.00 91 1011.7
20260502115516 55 0.0 0.0 0.00 0.00 0.00 91 1011.2
20260502114517 55 0.0 0.0 0.00 0.00 0.00 91 1011.5
20260502113517 55 0.0 0.0 0.00 0.00 0.00 91 1011.9
20260502112537 55 0.0 0.0 0.00 0.00 0.00 91 1012.4
20260502111516 56 0.0 0.0 0.00 0.00 0.00 91 1012.3
20260502110517 56 0.0 0.0 0.00 0.00 0.00 90 1012.3
20260502105517 56 0.0 0.0 0.00 0.00 0.00 90 1012.1
20260502104517 56 0.0 0.0 0.00 0.00 0.00 90 1011.5
20260502103516 56 0.0 0.0 0.00 0.00 0.00 90 1011.0
20260502102516 56 0.0 0.0 0.00 0.00 0.00 90 1011.2
20260502101516 56 0.0 0.0 0.00 0.00 0.00 90 1010.8
20260502100517 56 0.0 0.0 0.00 0.00 0.00 90 1010.9
20260502091516 56 0.0 0.0 0.00 0.00 0.00 90 1010.9
20260502090517 56 0.0 0.0 0.00 0.00 0.00 91 1011.1
20260502071017 57 0.0 0.0 0.00 0.00 0.00 88 1012.2
20260502070057 57 0.0 0.0 0.00 0.00 0.00 88 1012.1
20260502065057 57 0.0 0.0 0.00 0.00 0.00 88 1012.1
20260502064016 58 0.0 0.0 0.00 0.00 0.00 88 1012.0
20260502063016 58 0.0 0.0 0.00 0.00 0.00 88 1012.1
20260502062016 58 0.0 0.0 0.00 0.00 0.00 88 1012.1
20260502061017 58 0.0 0.0 0.00 0.00 0.00 87 1012.0
20260502060017 58 0.0 0.0 0.00 0.00 0.00 87 1012.2
20260502055017 58 0.0 0.0 0.00 0.00 0.00 87 1012.2
20260502054016 58 0.0 0.0 0.00 0.00 0.00 87 1012.2
20260502053016 58 0.0 0.0 0.00 0.00 0.00 87 1012.1
20260502052017 58 0.0 0.0 0.00 0.00 0.00 87 1012.3
20260502051016 58 0.0 0.0 0.00 0.00 0.00 87 1012.5
20260502050036 58 0.0 0.0 0.00 0.00 0.00 87 1012.4
20260502045016 59 0.0 0.0 0.00 0.00 0.00 87 1012.4
20260502044016 59 0.0 0.0 0.00 0.00 0.00 87 1012.4
20260502043016 59 0.0 0.0 0.00 0.00 0.00 87 1012.6
20260502042036 59 0.0 0.0 0.00 0.00 0.00 87 1012.8
20260502041056 59 0.0 0.0 0.00 0.00 0.00 86 1012.9
20260502040017 59 0.0 0.0 0.00 0.00 0.00 86 1012.9
20260502035015 59 0.0 0.0 0.00 0.00 0.00 86 1012.9
20260502034035 59 0.0 0.0 0.00 0.00 0.00 86 1012.8
20260502033015 60 0.0 0.0 0.00 0.00 0.00 86 1012.9
20260502032035 60 0.0 0.0 0.00 0.00 0.00 86 1013.0
20260502031015 60 0.0 0.0 0.00 0.00 0.00 85 1013.1
20260502030016 60 0.0 0.0 0.00 0.00 0.00 85 1013.3
20260502025015 60 0.0 0.0 0.00 0.00 0.00 85 1013.3
20260502024015 60 0.0 0.0 0.00 0.00 0.00 84 1013.1
20260502023015 61 0.0 0.0 0.00 0.00 0.00 84 1013.1
20260502022015 61 0.0 0.0 0.00 0.00 0.00 84 1013.0
20260502021015 61 0.0 0.0 0.00 0.00 0.00 83 1013.0
20260502020015 61 0.0 0.0 0.00 0.00 0.00 83 1012.8
20260502015035 61 0.0 0.0 0.00 0.00 0.00 83 1012.6
20260502014036 62 0.0 0.0 0.00 0.00 0.00 82 1012.6
20260502013015 62 0.0 0.0 0.00 0.00 0.00 82 1012.6
20260502012015 62 0.0 0.0 0.00 0.00 0.00 82 1012.4
20260502011035 62 0.0 0.0 0.00 0.00 0.00 81 1012.5
20260502010015 62 0.0 0.0 0.00 0.00 0.00 81 1012.5
20260502005035 63 0.0 0.0 0.00 0.00 0.00 80 1012.7
20260502004015 63 0.0 0.0 0.00 0.00 0.00 80 1012.6
20260502003015 63 0.0 0.0 0.00 0.00 0.00 79 1012.5
20260502002015 63 0.0 0.0 0.00 0.00 0.00 78 1012.3
20260502001035 64 0.0 0.0 0.00 0.00 0.00 77 1012.1
20260502000015 64 0.0 0.0 0.00 0.00 0.00 76 1012.0
20260501235015 64 0.0 0.0 0.00 0.00 0.00 75 1012.0
20260501234015 64 0.0 0.0 0.00 0.00 0.00 75 1012.0
20260501233015 64 0.0 0.0 0.00 0.00 0.00 75 1011.9
20260501232015 65 0.0 0.0 0.00 0.00 0.00 72 1012.0
20260501231015 65 0.0 0.0 0.00 0.00 0.00 72 1012.1
20260501230015 65 0.0 0.0 0.00 0.00 0.00 72 1011.8
20260501225015 65 0.0 0.0 0.00 0.00 0.00 72 1011.7
20260501224035 65 0.0 0.0 0.00 0.00 0.00 71 1011.6
20260501223015 65 0.0 0.0 0.00 0.00 0.00 71 1011.5
20260501222015 65 0.0 0.0 0.00 0.00 0.00 70 1011.6
20260501221015 66 0.0 0.0 0.00 0.00 0.00 69 1012.0
20260501220117 66 0.0 0.0 0.00 0.00 0.00 68 1012.3
20260501215035 66 0.0 0.0 0.00 0.00 0.00 69 1012.3
20260501214015 66 0.0 0.0 0.00 0.00 0.00 68 1012.3
20260501213015 65 0.0 0.0 0.00 0.00 0.00 67 1012.3
20260501212015 65 0.0 0.0 0.00 0.00 0.00 66 1012.5
20260501211015 65 0.0 0.0 0.00 0.00 0.00 66 1012.6
20260501210015 65 0.0 0.0 0.00 0.00 0.00 67 1012.8
20260501205017 65 0.0 0.0 0.00 0.00 0.00 68 1013.0
20260501204015 65 0.0 0.0 0.00 0.00 0.00 69 1013.1
20260501203015 65 0.0 0.0 0.00 0.00 0.00 67 1013.2
20260501202015 65 0.0 0.0 0.00 0.00 0.00 65 1013.3
20260501201015 65 0.0 0.0 0.00 0.00 0.00 65 1013.1
20260501200015 65 0.0 0.0 0.00 0.00 0.00 66 1013.0
20260501195015 65 0.0 0.0 0.00 0.00 0.00 66 1013.0
20260501194017 65 0.0 0.0 0.00 0.00 0.00 67 1013.2
20260501193015 65 0.0 0.0 0.00 0.00 0.00 66 1013.3
20260501192015 65 0.0 0.0 0.00 0.00 0.00 65 1013.4
20260501191015 64 0.0 0.0 0.00 0.00 0.00 66 1013.6
20260501190017 64 0.0 0.0 0.00 0.00 0.00 65 1013.7
20260501185015 64 0.0 0.0 0.00 0.00 0.00 67 1013.9
20260501184015 64 0.0 0.0 0.00 0.00 0.00 65 1014.1
20260501183015 64 0.0 0.0 0.00 0.00 0.00 67 1013.9
20260501182017 64 0.0 0.0 0.00 0.00 0.00 66 1013.9